Starlink 31454

operational
NORAD ID: 59014 Int'l Des: 2024-036 Owner: SPXS Country: US Constellation: starlink
LEOCIRCULAR

About Starlink 31454

Description loading...

Live Position

Loading 3D Globe...

Upcoming Passes

Altitude History

Altitude vs Time

uPlot chart will show altitude changes over time

Two-Line Element Set

1 59014U 24036S 25257.49947628 -.00001527 00000-0 -39470-4 0 9998
2 59014 53.1577 176.8026 0000997 63.0385 297.0717 15.30190011 88346
Epoch: Sep 14, 2025 • Age: 19 hours

Current Status

Altitude 492.5 km
Velocity 7.62 km/s
Sub-Earth Point -48.70°S, 23.29°E
Launch Date Feb 23, 2024
Age 1.5 years
Type internet

Technical Details

Classification Payload
Mass 730.00 kg
Dry Mass 700.00 kg
Total Mass 730.00 kg
Length 0.30 m
Diameter 4.10 m
Span 29.00 m
Shape Box + pan
Manufacturer SPXS
Bus Type Starlink V2M
Phase Status In Orbit
Owner/State SPXS/US

Large Constellations

Loading constellations...